Location: ??
(35.4032°N, 139.3073°E)
Time: 16:09:48
(UTC+00:00)

Cosmos 921 Rocket - Pass Details

Date: 13 April 2024
Orbit: 568 x 626 km, 75.8° (Epoch: 29 May)

Event Time Altitude Azimuth Distance (km) Brightness Sun altitude
Exits shadow 18:47:40 32° 222° (SW) 996 3.6 -17.1°
Maximum altitude 18:49:22 57° 287° (WNW) 686 3.0 -16.7°
Drops below altitude 10° 18:53:34 10° 7° (N) 1,924 6.0 -16.0°
Sets 18:55:51 0° 11° (N) 2,840 7.0 -15.5°
